Skip Page Navigation
NASA JPL Caltech
NASA Logo - Jet Propulsion Laboratory + View the NASA Portal
+ Near-Earth Object (NEO) Program
Search JPL
JPL Home Earth Solar System Stars & Galaxies Technology
JPL Solar System Dynamics
BODIES ORBITS EPHEMERIDES TOOLS PHYSICAL DATA DISCOVERY FAQ SITE MAP
JPL Small-Body Database Browser
Search: [ help ]  
73782 Yanagida (1994 TD15)
Classification: Main-belt Asteroid          SPK-ID: 2073782
Ephemeris | Orbit Diagram | Orbital Elements | Physical Parameters | Discovery Circumstances ]

[ show orbit diagram ]
Orbital Elements at Epoch 2456400.5 (2013-Apr-18.0) TDB
Reference: JPL 1 (heliocentric ecliptic J2000)
 Element Value Uncertainty (1-sigma)   Units 
e .3109028095769451 1.9557e-07  
a 2.614001740740305 2.8601e-08 AU
q 1.801301255305119 5.1575e-07 AU
i 15.84611545012509 1.4771e-05 deg
node 38.74922704534242 3.1095e-05 deg
peri 352.8904257766357 3.8741e-05 deg
M 130.5344265146837 1.2864e-05 deg
tp 2455840.768433108347
(2011-Oct-06.26843311)
5.517e-05 JED
period 1543.679851064638
4.23
2.5335e-05
6.936e-08
d
yr
n .2332089777240513 3.8275e-09 deg/d
Q 3.42670222617549 3.7493e-08 AU
  Orbit Determination Parameters
   # obs. used (total)      298  
   data-arc span      6758 days (18.50 yr)  
   first obs. used      1994-10-14  
   last obs. used      2013-04-15  
   planetary ephem.      DE405  
   SB-pert. ephem.      SB405-CPV-2  
   condition code      0  
   fit RMS      .60184  
   data source      ORB  
   producer      Otto Matic  
   solution date      2013-Apr-29 17:24:34  

Additional Information
 Earth MOID = .808047 AU 
 T_jup = 3.287 
[ show covariance matrix ]

Ephemeris | Orbit Diagram | Orbital Elements | Physical Parameters | Discovery Circumstances ]

Physical Parameter Table
Parameter Symbol Value Units Sigma Reference Notes
absolute magnitude H 14.448 mag .48556 1 autocmod 2.5c

73782 Yanagida           Discovered 1994 Oct. 14 by A. Tsuchikawa and O. Muramatsu at the Yanagida Observatory.
Yanagida village is located in the center of Noto peninsula. This village is home of the Yanagida Astronomical Observatory, where this minor planet was discovered. In Mar. 2005, Yanagida village and two neighboring towns, Noto and Uchiura, will be combined to form a new town.
NOTE: some special characters may not display properly (any characters within {} are an attempt to place the proper accent above a character)
Reference: 20040928/MPCPages.arcLast Updated: 2004-09-28

Alternate Designations
 1994 TD15 = 2000 BL31 
Ephemeris | Orbit Diagram | Orbital Elements | Physical Parameters | Discovery Circumstances ]
ABOUT SSD CREDITS/AWARDS PRIVACY/COPYRIGHT GLOSSARY LINKS
FirstGov 2013-May-23 22:09 UT
(server date/time)  
NASA Home Page
Site Manager:   Donald K. Yeomans
Webmaster  Alan B. Chamberlin